Kezdőlap
METAR-TAF:

METAR-TAF

Repülőterek :

Sunlight Mountain, Colorado, Amerikai Egyesült Államok

földrajzi szélesség: 39-25-32N, földrajzi hosszúság: 107-22-45W, magasság: 3232 m

Jelenlegi meteorológiai megfigyelések

A jelentés 22 perccel ezelõtt készült, 15:55 UTC
Szélcsend
Hőmérséklet 13°C
Páratartalom 51%
Légköri nyomás 1038 hPa
Látótávolság: 16.1 km
Szórványos felhőzet 11000 lábon

METAR: K5SM 161555Z AUTO 00000KT 10SM SCT110 13/03 A3064 RMK AO2

Idő: 10:17 (16:17 UTC)


TAF: hiányzik

Meteorológiai megfigyelések és előrejelzések több, mint 4000 repülőtéren (METAR és TAF jelentéseket).

A térképen piros és sárga pontok jelzik az elérhető meteorológiai állomásokat.

Mozgassa az egeret a pont fölött, hogy megjelenjen az állomás neve.

Azután kattintson az időjárási megfigyelések és előrejelzések megtekintéséhez.

A térkép megváltoztatása: kattintson a fekete keresztel jelölt zöld gombra ráközelítéshez, a vonallal jelölt zöld gombra távolításhoz, vagy a zöld nyilakra a szomszédos térképek eléréséhez.


METAR-TAF: